Location: Casilda
(33.0440°S, 61.1680°W)
Time: 14:30:45
(UTC-03:00)

ISS - Pass Details

Date: 21 June 2017
Orbit: 401 x 408 km, 51.6° (Epoch: 28 June)

Event Time Altitude Azimuth Distance (km) Brightness Sun altitude
Exits shadow 06:38:02 41° 316° (NW) 602 -3.2 -18.2°
Drops below altitude 10° 06:41:04 10° 23° (NNE) 1,456 -0.5 -17.6°
Sets 06:43:11 0° 31° (NNE) 2,308 0.8 -17.2°
